Miscellaneous Local Product
Issued by NWS North Platte, NE

Home | Current Version | Previous Version | Text Only | Print | Product List | Glossary On
Versions: 1 2 3 4 5 6 7 8 9 10 11 12 13 14 15 16 17 18 19 20 21 22 23 24 25 26 27 28 29 30 31 32 33 34 35 36 37 38 39 40 41 42 43 44 45 46 47 48 49 50
000
AXUS43 KLBF 011710
MISLBF


WESTERN AND NORTH CENTRAL NEBRASKA HOURLY WEATHER ROUNDUP
NATIONAL WEATHER SERVICE NORTH PLATTE NE
1200 PM CDT WED JUL 01 2015

***STATIONS NOT REPORTING VARIABLES SUCH AS SKY/WEATHER OR
PRESSURE ARE PROVIDED BY THE NEBRASKA DEPARTMENT OF
ROADS...RAWS...AND APRS NETWORKS...AND ARE NOT UNDER
NATIONAL WEATHER SERVICE QUALITY CONTROL***

...OBSERVATIONS IN AND NEAR THE EASTERN PANHANDLE OF NEBRASKA...

CITY           SKY/WX    TMP DP  RH WIND       PRES   REMARKS
PINE RIDGE     SUNNY     82  62  50 N10       30.01R
CHADRON        MOSUNNY   87  60  40 VRB6      30.00S
ALLIANCE       MOSUNNY   86  58  38 N16       30.03R
SIDNEY         SUNNY     87  57  35 N13       30.07S
WHITECLAY        N/A     82  59  45 NE7         N/A
CRESCENT LAKE    N/A     87  61  41 NE13        N/A
BIG SPRINGS      N/A     90  61  37 N6          N/A  HX  90
$$

...OBSERVATIONS IN NORTH CENTRAL NEBRASKA...

CITY           SKY/WX    TMP DP  RH WIND       PRES   REMARKS
VALENTINE      MOSUNNY   81  68  64 N12       29.93R
THEDFORD       SUNNY     86  66  51 N14       29.95S
AINSWORTH      SUNNY     80  68  68 E5        29.94R
O`NEILL        CLOUDY    73  67  82 SE7       29.92F
ORD            CLOUDY    72  64  76 NE7       29.91R
BROKEN BOW     SUNNY     81  69  67 N8        29.92R
VALENTINE NWR    N/A     82  66  57 N10         N/A
SPRINGVIEW       N/A     78  67  69 SE3         N/A
HALSEY           N/A     84  66  54 N6          N/A
BREWSTER         N/A     84  70  61 NE9         N/A
ROSE             N/A     88  80  78 NE7         N/A  HX 104
NEWPORT          N/A     76  67  75 S6          N/A
SARGENT          N/A     77  68  72 E3          N/A
CHAMBERS         N/A     78  69  73 E5          N/A
EWING            N/A     73  69  87 E3          N/A
$$

...OBSERVATIONS IN SOUTHWEST NEBRASKA AND FAR NORTHEAST COLORADO...

CITY           SKY/WX    TMP DP  RH WIND       PRES   REMARKS
WRAY           FAIR      92  55  28 CALM      30.01S HX  90
HOLYOKE        FAIR      95  50  21 N12G21    30.01R HX  92
IMPERIAL       SUNNY     91  60  35 NE13      29.97R HX  90
OGALLALA       MOSUNNY   85  66  52 NW5       29.98R
NORTH PLATTE   SUNNY     91  64  40 VRB7      29.93R HX  92
MCCOOK         SUNNY     91  63  39 N10       29.91R HX  92
LEXINGTON      SUNNY     83  67  59 NE10      29.92R
PAXTON           N/A     90  64  41 NW10        N/A  HX  91
GOTHENBURG       N/A     86  64  47 N3          N/A
CALLAWAY         N/A     85  71  62 N12         N/A  HX  90
$$

...NORTH PLATTE AREA...

CITY           SKY/WX    TMP DP  RH WIND       PRES   REMARKS
AIRPORT        SUNNY     91  64  40 VRB7      29.93R HX  92
DOWNTOWN         N/A     87  65  47 N8          N/A
HILLCREST        N/A     86  63  45 NE15        N/A
$$

...SOME WEATHER OBSERVATIONS FROM AROUND THE REGION...

CITY           SKY/WX    TMP DP  RH WIND       PRES   REMARKS
DENVER         MOSUNNY   85  52  32 N7        30.17R
LARAMIE        SUNNY     76  46  34 VRB3      30.29F
CHEYENNE       SUNNY     78  52  40 NE8       30.21S
SCOTTSBLUFF    SUNNY     89  60  37 NW8       30.04F
RAPID CITY     SUNNY     80  59  48 N23G30    29.99R HAZE
PIERRE         PTSUNNY   76  65  68 VRB5      29.89R
WINNER         FAIR      81  64  56 NE5       29.90R
SIOUX FALLS    CLOUDY    69  63  81 SE12      29.94R
OMAHA          MOSUNNY   80  68  66 SE9       29.88R
GRAND ISLAND   CLOUDY    75  66  73 N10       29.90R
KANSAS CITY    PTSUNNY   79  72  79 E8        29.86R
WICHITA        PTSUNNY   92  64  39 SW15      29.81R HX  93
HAYS           MOSUNNY   90  59  35 N18G24    29.83R
LIBERAL        MOSUNNY   90  59  35 W7        29.95S
GOODLAND       SUNNY     90  58  33 NE15G22   30.00R
$$



USA.gov is the U.S. government's official web portal to all federal, state and local government web resources and services.